895  
ASUS46 KPDT 311410  
RWRPDT  
PENDLETON REGIONAL WEATHER ROUNDUP  
NATIONAL WEATHER SERVICE PENDLETON OREGON  
700 AM PDT WED AUG 31 2016  
 
NOTE: FAIR INDICATES FEW OR NO CLOUDS BELOW 12,000 FEET WITH NO  
SIGNIFICANT WEATHER AND/OR S TO VISIBILITY
.  
 
# INDICATES UNOFFICIAL STATION AND DATA  
 
WAZ520-311510-  
EAST SLOPES OF WASHINGTON CASCADES  
 
CITY SKY/WX TMP DP RH WIND PRES REMARKS
 
#CLE ELUM HS N/A 46 43 89 CALM 29.93R  
#CLE ELUM 2NW N/A 46 43 89 CALM N/A  
#GLENWOOD N/A 35 34 96 CALM 29.95F  
#MANASTASH CYN N/A 42 34 73 CALM 29.94F  
#NELSON 3SW N/A 45 40 82 CALM 30.09S  
#NILE N/A 45 43 93 CALM 29.20F  
#RONALD 2NW N/A 45 N/A N/A CALM 29.86S  
#TEANAWAY 4NE N/A 43 43 100 W1 N/A  
#TROUT LAKE 1NE N/A 43 41 93 CALM 29.94S  

 
 
WAZ521-311510-  
SIMCOE HIGHLANDS  
 
CITY SKY/WX TMP DP RH WIND PRES REMARKS
 
#CENTERVILLE 1SWN/A 55 47 74 CALM 29.88R  
#GOLDENDALE 1NE N/A 49 39 68 CALM N/A  
#GOLDENDALE 4W N/A 47 47 100 W1 29.99S  
#GOODNOE HILLS N/A 57 50 77 W8 29.87R  
#LYLE 6NE N/A 57 51 80 W2 29.90S  

 
 
WAZ026-311510-  
KITTITAS VALLEY  
 
CITY SKY/WX TMP DP RH WIND PRES REMARKS
 
ELLENSBURG AP CLEAR 54 46 74 W10 29.94S  
#ELLENSBURG CWU N/A 53 47 80 CALM 29.84R  
#ELLENSBURG 3NE N/A 56 47 72 NW3 29.94S  
#ELLENSBURG N/A 53 50 89 SE1 N/A  
#ELLENSBURG 1E N/A 47 N/A N/A CALM N/A  
#KITTITAS 4N N/A 48 42 80 E3 29.96R  
#KITTITAS 3S N/A 46 44 93 CALM 29.89R  
#THORP 6N N/A 49 45 86 N10 29.90R  

 
 
WAZ027-311510-  
YAKIMA VALLEY  
 
CITY SKY/WX TMP DP RH WIND PRES REMARKS
 
YAKIMA AIRPORT CLEAR 48 41 77 W6 29.94R  
YAKIMA-VAGABOND N/A 51 43 74 E7 29.92S  
#DONALD 2NE N/A 56 36 47 CALM 28.78R  
#GRANDVIEW N/A 49 45 86 CALM 29.92R  
#MABTON N/A 48 41 77 CALM 29.92R  
#NACHES 2SW N/A 55 46 72 W10 29.93S  
#TERRACE HTS N/A 52 49 89 CALM 29.85R  
#TOPPENISH N/A 51 46 83 CALM 29.83R  
#WEST VALLEY N/A 49 41 74 CALM 29.88S  
#WHITE SWAN 5E N/A 49 42 77 CALM 29.91R  
#WILEY CITY 3W N/A 49 29 46 CALM 29.91R  

 
 
WAZ028-311510-  
LOWER COLUMBIA BASIN...WASHINGTON  
 
CITY SKY/WX TMP DP RH WIND PRES REMARKS
 
HANFORD MOCLEAR 55 46 72 S2 29.90R  
PASCO CLEAR 61 49 65 SW8 29.92R  
PROSSER AWOS N/A 46 45 96 CALM 29.96R  
RICHLAND AWOS CLEAR 60 50 69 S5 29.91S  
#CONNELL 5N N/A 49 44 83 NE1 29.89S  
#CONNELL 5NW N/A 49 45 86 CALM 29.85S  
#ELTOPIA 6NW N/A 53 49 86 CALM 28.89S  
#KAHLOTUS N/A 56 45 66 S2 29.88R  
#KENNEWICK 3S N/A 59 51 75 N5 29.88S  
#SAGEMOOR 2W N/A 54 48 80 CALM 29.75R  
#TOUCHET 2S N/A 62 49 62 NW2 29.89R  
#WEST PASCO N/A 58 49 72 W1 29.90R  

 
 
WAZ029-311510-  
FOOTHILLS OF THE BLUES...WASHINGTON  
 
CITY SKY/WX TMP DP RH WIND PRES REMARKS
 
WALLA WALLA AP MOCLDY 60 41 49 S10 29.95S  
#CLYDE 6NW N/A 56 45 66 S2 29.88S  
#DAYTON SCHOOL N/A 52 39 61 E1 29.96R  
#LOWDEN 2SE N/A 51 46 83 E2 29.91  
#PLEASANT VIEW 1N/A 55 43 64 S9 29.90R  
#PRESCOTT N/A 45 42 89 CALM 29.92R  
#WHITMAN COLLEGEN/A 60 44 55 SE2 29.95R  
#WAITSBURG 8N N/A 58 19 22 S7 29.91S  
#WALLA WALLA U N/A 58 45 62 CALM 29.91R  
#WHITMAN MISSIONN/A 52 47 83 CALM 29.93R  

 
 
WAZ030-311510-  
BLUE MOUNTAINS...WASHINGTON  
 
CITY SKY/WX TMP DP RH WIND PRES REMARKS
 
#DIXIE 5SE N/A 70 47 44 W6 29.92S  

 
 
ORZ009-041-WAZ024-311510-  
COLUMBIA RIVER GORGE  
 
CITY SKY/WX TMP DP RH WIND PRES REMARKS
 
HOOD RIVER AP CLEAR 50 46 86 CALM 29.97S  
THE DALLES AP CLEAR 57 47 69 CALM 29.95R  
#ARLINGTON AIRPON/A 57 50 77 CALM 29.93R  
#LYLE N/A 60 53 78 N3 29.95F  
#MARYHILL 2W N/A N/A N/A N/A CALM N/A  
#MOSIER 1S N/A 56 45 66 CALM 29.94S  
#MURDOCK N/A 61 54 78 W6 29.90S  
#RUFUS DOT N/A 64 51 63 NW10 N/A  
#SMITHVILLE N/A 61 53 75 W7 29.89R  
 

 
 
ORZ510-311510-  
NORTH CENTRAL OREGON  
 
CITY SKY/WX TMP DP RH WIND PRES REMARKS
 
#ANTELOPE N/A 42 38 86 NE1 29.77R  
#COW CYN RST AREN/A 54 N/A N/A SW6 N/A  
#DUFUR 9E N/A 54 48 80 W1 29.97R  
#GRASS VALLEY 1SN/A 47 44 89 S1 29.93S  
#KENT DOT N/A 48 42 80 N8 N/A  
#MAUPIN SCHOOL N/A 52 47 83 CALM 30.01R  
#SHANIKO 5WSW N/A 53 41 64 N2 N/A  
#TYGH VALLEY 2NEN/A 48 44 86 CALM 29.94R  
#WAPANITIA AIRPON/A 44 41 89 CALM 29.93R  
#WASCO DOT N/A 56 52 86 SW8 N/A  
#WASCO 5NE N/A 53 48 83 SW2 29.91S  

 
 
ORZ511-311510-  
CENTRAL OREGON  
 
CITY SKY/WX TMP DP RH WIND PRES REMARKS
 
BEND AIRPORT PTCLDY 41 39 93 CALM 30.01S  
MADRAS AIRPORT PTCLDY 50 46 86 SE7 30.02S  
PRINEVILLE AP CLEAR 41 36 82 CALM 30.02S  
REDMOND AIRPORT PTCLDY 44 37 76 S7 30.01S  
#ASHWOOD SCHOOL N/A 44 39 82 CALM 29.97S  
#BEND 1SW N/A 47 43 86 CALM N/A  
#BEND-AWBREY N/A 50 45 83 SW2 29.88R  
#CULVER N/A 47 43 86 CALM 29.85R  
#CULVER 8W N/A 48 42 80 CALM 29.99R  
#LAKE BILLY CHINN/A 51 N/A N/A W1 30.07R  
#MADRAS 4S N/A 48 26 42 S7 30.06S  
#POWELL BUTTE 3EN/A 42 38 86 SE2 N/A  
#POWELL BUTTE N/A 48 38 68 CALM 29.89R  
#PRINEVILLE 3N N/A 42 39 89 CALM 29.91S  
 

 
 
 
ORZ509-311510-  
EAST SLOPES OF OREGON CASCADES  
 
CITY SKY/WX TMP DP RH WIND PRES REMARKS
 
SISTERS AWOS N/A 39 36 89 CALM 30.00R  
#BLUE BOX PASS N/A 45 N/A N/A CALM N/A  
#CAMP SHERMAN N/A 42 38 86 CALM 30.03R  
#LA PINE 4NW N/A 33 30 89 CALM 29.98S  
#LAVA BUTTE DOT N/A 44 43 96 CALM N/A  
#SISTERS AIRPOR N/A 39 38 96 CALM 30.17S  
#SISTERS ODOT N/A 40 N/A N/A CALM N/A  
#SISTERS 3N N/A 40 32 73 CALM 30.03S  
#SUNRIVER N/A 39 37 92 CALM 29.94S  
#SUTTLE LK DOT N/A 42 40 93 W14 N/A WCI 35  
#TUMALO 3W N/A 47 40 76 CALM 29.76S  
#WANOGA BUTTE D N/A 50 32 50 W6 N/A  
 

 
 
ORZ044-311510-  
LOWER COLUMBIA BASIN...OREGON  
 
CITY SKY/WX TMP DP RH WIND PRES REMARKS
 
HERMISTON PTCLDY 59 48 67 SW8 29.94R  
#BOARDMAN SCHOOLN/A 59 50 72 S1 29.93R  
#BOARDMAN 8SW N/A 56 50 80 S9 29.91S  
#ECHO 8SW N/A 56 46 69 SW2 29.95R  
#I-84 EX 198 DOTN/A 57 47 69 NE7 N/A  
#UMATILLA N/A 54 46 74 CALM 29.86R  

 
 
ORZ507-311510-  
NORTHERN FOOTHILLS OF THE BLUES  
 
CITY SKY/WX TMP DP RH WIND PRES REMARKS
 
PENDLETON AIRPT MOCLDY 53 40 61 SE7 29.97R  
#ADAMS 3WNW N/A 49 41 74 CALM 29.93R  
#ATHENA N/A 49 42 77 CALM 29.94R  
#CAYUSE N/A 55 42 61 E1 29.92R  
#HELIX SCHOOL N/A 48 41 77 SE1 29.92R  
#HELIX 3N N/A 53 44 71 N1 29.95R  
#HOLDMAN 5SE N/A 53 46 77 CALM 29.96S  
#HOLDMAN 6E N/A 53 45 74 NW3 29.73R  
#M-F GROVE ELEM N/A 58 40 51 CALM 29.93S  
#M-FREEWATER 5SEN/A 54 42 64 CALM 29.96S  
#PENDLETON DNTN N/A 48 34 58 CALM 29.98S  
#PDT AQUATIC CTRN/A 48 33 56 CALM 29.99R  
#PDT SUNRIDGE N/A 44 38 79 CALM 29.98S  
#PENDLETON 7NW N/A 48 39 71 CALM 32.44S  
#PILOT ROCK 1S N/A 54 39 57 CALM 29.98S  
#PILOT ROCK N/A 51 39 63 SW1 29.96R  
#TUTUILLA N/A 48 42 80 CALM 29.96R  
#UMAPINE 2E N/A 60 50 69 CALM 29.92R  
#WESTON SCHOOL N/A 55 38 53 NW2 29.85R  
 

 
 
ORZ508-311510-  
SOUTHERN FOOTHILLS OF THE BLUES  
 
CITY SKY/WX TMP DP RH WIND PRES REMARKS
 
LEXINGTON PTCLDY 52 41 66 E6 30.00S  
#AJAX N/A 51 39 63 CALM 27.73S  
#CONDON SCHOOL N/A 50 45 83 SW1 29.96R  
#CONDON 5W N/A 51 44 77 SW6 29.98R  
#FOSSIL SCHOOL N/A 44 40 86 CALM 29.96S  
#HEPPNER EOC N/A 51 42 71 E2 29.85S  
#HEPPNER 4NE N/A 52 41 66 CALM 29.89S  
#LEXINGTON 2SE N/A 51 42 71 SE5 29.95S  
#MIKKALO N/A 54 45 71 S5 30.08R  
#OLEX 4N N/A 56 49 77 SW6 29.94R  
#RUGGS 2SW N/A 52 42 69 S6 29.92R  
 

 
 
ORZ502-503-311510-  
BLUE MOUNTAINS  
 
CITY SKY/WX TMP DP RH WIND PRES REMARKS
 
MEACHAM CLOUDY 36 31 82 CALM 30.02S  
#BATTLE MTN DOT N/A 45 38 76 N8 N/A  
#CUTSFORTH PARK N/A 39 36 89 CALM 29.80S  
#GREENHORN 9SW N/A 37 30 75 CALM 26.23R  
#HARDMAN 10S N/A 46 40 79 CALM 29.98R  
#HEPPNER 15SE N/A 44 39 82 CALM 25.55F  
#LADD CYN SMT N/A 50 39 66 N8 N/A  
#LADD CREEK ODOTN/A 51 41 68 SW1 N/A  
#N POWDER DOT N/A 44 41 89 SW2 N/A  
#PIKES PEAK N/A 57 39 51 SW14 27.99S  
#TOLLGATE N/A 46 37 71 CALM 29.91S  
#TROY SCHOOL N/A 52 43 71 CALM 29.74S  
#UKIAH N/A 36 33 89 CALM 29.86R  

 
 
ORZ505-311510-  
JOHN DAY BASIN  
 
CITY SKY/WX TMP DP RH WIND PRES REMARKS
 
JOHN DAY CLOUDY 52 33 48 E3 30.03R  
#DAYVILLE SCHOOLN/A 49 35 58 CALM 29.97R  
#MITCHELL N/A 47 42 83 E1 30.17F  
#MITCHELL 8NW N/A 53 42 66 CALM 30.06S  
#MT. VERNON 5SE N/A 51 39 63 CALM 29.98R  
#SPRAY SCHOOL N/A 47 N/A N/A CALM N/A  

 
 
ORZ506-311510-  
OCHOCO AND JOHN DAY HIGHLANDS  
 
CITY SKY/WX TMP DP RH WIND PRES REMARKS
 
#BUCK CREEK DOT N/A 50 37 61 NW2 N/A  
#HORSE RIDGE DO N/A 29 23 78 CALM N/A  
#KEYES SMT DOT N/A 51 41 68 SW14 N/A  
#PAULINA SCHOOL N/A 38 28 67 CALM N/A  
#PINE MTN OBS N/A 54 33 45 NW3 N/A  
#SENECA N/A 36 N/A N/A CALM N/A  
#SENECA 9NW N/A 34 26 72 CALM 29.92R  

 
 
ORZ049-311510-  
GRANDE RONDE VALLEY  
 
CITY SKY/WX TMP DP RH WIND PRES REMARKS
 
LA GRANDE CLOUDY 46 30 53 CALM 29.97S  
#COVE N/A 53 44 71 CALM 29.99F  
#COVE SCHOOL N/A 53 41 64 CALM 29.99F  
#COVE 6NW N/A 45 38 76 CALM 29.85F  
#ELGIN 3N N/A 44 36 73 CALM 29.96S  
#ELGIN 1E N/A 44 36 73 CALM N/A  
#IMBLER SCHOOL N/A 46 40 79 CALM 29.95S  
#ISLAND CITY 4N N/A 57 55 93 CALM 29.98F  
#LADD CYN DOT N/A 54 41 61 S3 N/A  
#LA GRANDE ELEM N/A 59 39 47 W17 29.99R  
#UNION 1S N/A 47 40 76 CALM 29.79R  

 
 
ORZ050-311510-  
WALLOWA COUNTY  
 
CITY SKY/WX TMP DP RH WIND PRES REMARKS
 
JOSEPH AIRPORT CLOUDY 54 34 47 N3 29.99F  
#IMNAHA SCHOOL N/A 60 40 47 S2 29.96R  
#IMNAHA 10S N/A 60 36 41 SW6 29.99R  
#JOSEPH 3N N/A 46 38 73 NE2 30.02S  
#JOSEPH 3W N/A 59 38 45 SW1 29.85S  
#LOSTINE N/A 43 38 82 CALM 29.67S  
#LOSTINE 3SE N/A 45 38 76 S1 29.98S  
#MT HOWARD 8000 N/A 59 26 28 SE6 30.22S  
#PROMISE 1S N/A 52 39 61 CALM 29.96R  
#WALLOWA SCHOOL N/A 42 38 86 CALM 29.96R  
 

 
 
CLICK HERE TO GO TO PREVIOUS BULLETINS.

The Nexlab OR Page
The Nexlab WA Page Main Text Page